[TLELIST] Archives

 

[list_settings.list_name] Current TLEs

May 31st 2010 PST

HST 1 20580U 90037B 10150.02820027 .00000387 00000-0 16839-4 0 5751 2 20580 028.4720 358.4005 0003126 007.6900 352.3749 15.00977608902028 ISS (ZARYA) 1 25544U 98067A 10151.28905424 .00053067 00000-0 34969-3 0 2530 2 25544 051.6476 317.2227 0009301 008.2150 053.4713 15.75047530660815 CXO 1 25867U 99040B 10150.54166667 -.00000048 00000-0 10000-3 0 4721 2 25867 067.0527 054.4384 8144051 275.2336 357.5291 00.37805482 6326 ____________________________________________________________________ These 2-Line ...Continue Reading

[list_settings.list_name] Current TLEs

May 30th 2010 PST

HST 1 20580U 90037B 10150.02820027 .00000387 00000-0 16839-4 0 5751 2 20580 028.4720 358.4005 0003126 007.6900 352.3749 15.00977608902028 ISS (ZARYA) 1 25544U 98067A 10150.52440081 .00011976 00000-0 83031-4 0 2470 2 25544 051.6483 321.1496 0008946 004.8170 038.3213 15.74931540660698 CXO 1 25867U 99040B 10150.54166667 -.00000048 00000-0 10000-3 0 4721 2 25867 067.0527 054.4384 8144051 275.2336 357.5291 00.37805482 6326 ____________________________________________________________________ These 2-Line ...Continue Reading

[list_settings.list_name] Current TLEs

May 29th 2010 PST

HST 1 20580U 90037B 10149.03081167 .00000367 00000-0 15317-4 0 5741 2 20580 028.4719 004.9116 0003084 356.2054 003.8500 15.00977048901871 ISS (ZARYA) 1 25544U 98067A 10149.51107503 .00008613 00000-0 61035-4 0 2403 2 25544 051.6473 326.3620 0008979 001.2062 052.7803 15.74897204660536 CXO 1 25867U 99040B 10145.32538203 .00000000 00000-0 10000-3 0 4716 2 25867 067.0313 054.6468 8127330 275.2741 007.2899 00.37814595 6301 ____________________________________________________________________ These 2-Line ...Continue Reading

[list_settings.list_name] Current TLEs

May 28th 2010 PST

HST 1 20580U 90037B 10148.03342351 .00000364 00000-0 15058-4 0 5733 2 20580 028.4709 011.4217 0003046 343.7060 016.3457 15.00976549901720 ISS (ZARYA) 1 25544U 98067A 10148.36943285 .00020673 00000-0 14030-3 0 2334 2 25544 051.6469 332.2337 0009182 357.4794 059.5107 15.74891882660355 CXO 1 25867U 99040B 10145.32538203 .00000000 00000-0 10000-3 0 4716 2 25867 067.0313 054.6468 8127330 275.2741 007.2899 00.37814595 6301 ____________________________________________________________________ These 2-Line ...Continue Reading

[list_settings.list_name] Current TLEs

May 27th 2010 PST

HST 1 20580U 90037B 10146.96954202 .00000383 00000-0 16497-4 0 5725 2 20580 028.4698 018.3684 0003133 332.1946 027.8471 15.00976129901562 ISS (ZARYA) 1 25544U 98067A 10147.47104801 .00021534 00000-0 14190-3 0 2309 2 25544 051.6486 336.8517 0008779 352.2529 007.8860 15.74867339660211 CXO 1 25867U 99040B 10147.87500000 -.00000111 00000-0 10000-3 0 4705 2 25867 067.0416 054.5626 8139290 275.2159 354.5518 00.37807407 6312 ____________________________________________________________________ These 2-Line ...Continue Reading

[list_settings.list_name] Current TLEs

May 26th 2010 PST

HST 1 20580U 90037B 10145.10774846 .00000362 00000-0 14875-4 0 5718 2 20580 028.4707 030.5193 0003059 311.3797 048.6496 15.00975383901282 ISS (ZARYA) 1 25544U 98067A 10146.15649465 .00016305 00000-0 11438-3 0 2226 2 25544 051.6483 343.6053 0009847 357.0077 105.5681 15.74313103660006 CXO 1 25867U 99040B 10145.25000000 .00000034 00000-0 10000-3 0 4691 2 25867 067.0294 054.6807 8132151 275.2105 357.2325 00.37805371 6301 ____________________________________________________________________ These 2-Line ...Continue Reading

[list_settings.list_name] Current TLEs

May 25th 2010 PST

HST 1 20580U 90037B 10145.10774846 .00000362 00000-0 14875-4 0 5718 2 20580 028.4707 030.5193 0003059 311.3797 048.6496 15.00975383901282 ISS (ZARYA) 1 25544U 98067A 10145.13999001 .00024815 00000-0 17172-3 0 2166 2 25544 051.6473 348.8312 0010520 350.7215 106.9732 15.74291445659840 CXO 1 25867U 99040B 10145.25000000 .00000034 00000-0 10000-3 0 4691 2 25867 067.0294 054.6807 8132151 275.2105 357.2325 00.37805371 6301 ____________________________________________________________________ These 2-Line ...Continue Reading

[list_settings.list_name] Current TLEs

May 24th 2010 PST

HST 1 20580U 90037B 10144.11036028 .00000356 00000-0 14389-4 0 5703 2 20580 028.4700 037.0295 0003095 298.2433 061.7896 15.00975010901131 ISS (ZARYA) 1 25544U 98067A 10144.50058208 .00039682 00000-0 27147-3 0 2117 2 25544 051.6488 352.1162 0010683 352.1984 079.3161 15.74292332659740 CXO 1 25867U 99040B 10145.25000000 .00000034 00000-0 10000-3 0 4691 2 25867 067.0294 054.6807 8132151 275.2105 357.2325 00.37805371 6301 ____________________________________________________________________ These 2-Line ...Continue Reading

[list_settings.list_name] Current TLEs

May 23rd 2010 PST

HST 1 20580U 90037B 10143.11297284 .00000425 00000-0 19694-4 0 5694 2 20580 028.4690 043.5445 0003251 290.0024 070.0309 15.00974617900984 ISS (ZARYA) 1 25544U 98067A 10143.48501815 .00012266 00000-0 87518-4 0 2051 2 25544 051.6474 357.3275 0010009 348.7324 083.4065 15.74217531659587 CXO 1 25867U 99040B 10142.62500000 +.00000268 +00000-0 +10000-3 0 04682 2 25867 067.0115 054.7736 8125672 275.2313 359.8525 00.37805888006297 ____________________________________________________________________ These 2-Line ...Continue Reading

[list_settings.list_name] Current TLEs

May 22nd 2010 PST

HST 1 20580U 90037B 10141.11819311 .00000342 00000-0 13344-4 0 5686 2 20580 028.4686 056.5663 0003313 268.7388 091.2819 15.00973018900681 ISS (ZARYA) 1 25544U 98067A 10142.32875000 .00013367 00000-0 95081-4 0 1981 2 25544 051.6468 003.2670 0010073 344.8665 010.1362 15.74189993659398 CXO 1 25867U 99040B 10139.91666667 .00000349 00000-0 10000-3 0 4671 2 25867 066.9920 054.9296 8122195 275.2241 351.1169 00.37808243 6285 ____________________________________________________________________ These 2-Line ...Continue Reading
  • This mailing list is a public mailing list - anyone may join or leave, at any time.
  • This mailing list is announce-only.

International Space Station (ISS) / Hubble Space Telescope (HST) / Chandra X-Ray Observatory Orbital Data via EMAIL

Privacy Policy:

Private list